EW4155 Weather Reports


time (UTC)temp
F
wind
direction
speed
knots
gust
knots
rain 1hr
in
rain 24hr
in
rain mn
in
humidity
%
barometer
mb
20260509135006 74 316 0.9 5.2 0.00 0.00 0.00 83 1010.4
20260509134514 74 285 2.6 5.2 0.00 0.00 0.00 82 1010.4
20260509134006 74 133 2.6 6.1 0.00 0.00 0.00 82 1010.4
20260509133506 73 297 0.9 7.0 0.00 0.00 0.00 84 1010.3
20260509133019 74 345 2.6 7.0 0.00 0.00 0.00 84 1010.2
20260509132513 74 269 4.3 7.0 0.00 0.00 0.00 83 1010.2
20260509132010 74 4 0.9 3.5 0.00 0.00 0.00 85 1010.0
20260509131524 74 300 1.7 2.6 0.00 0.00 0.00 86 1010.0
20260509131014 74 320 0.0 2.6 0.00 0.00 0.00 87 1009.8
20260509130512 74 255 0.0 2.6 0.00 0.00 0.00 89 1009.8
20260509130024 73 155 0.0 0.0 0.00 0.00 0.00 91 1009.7
20260509125513 73 155 0.0 0.0 0.00 0.00 0.00 92 1009.8
20260509125012 72 155 0.0 0.0 0.00 0.00 0.00 92 1009.8
20260509124534 71 155 0.0 0.0 0.00 0.00 0.00 92 1009.8
20260509124012 71 155 0.0 0.0 0.00 0.00 0.00 93 1009.9
20260509123506 71 155 0.0 0.0 0.00 0.00 0.00 94 1009.9
20260509123018 70 155 0.0 0.0 0.00 0.00 0.00 95 1010.0
20260509122508 69 155 0.0 0.0 0.00 0.00 0.00 94 1009.9
20260509122006 69 155 0.0 0.9 0.00 0.00 0.00 94 1010.0
20260509121504 69 155 0.0 0.9 0.00 0.00 0.00 94 1010.0
20260509121004 68 134 0.0 0.9 0.00 0.00 0.00 94 1010.2
20260509120504 68 146 0.0 0.0 0.00 0.00 0.00 94 1010.1
20260509120006 69 243 0.0 0.0 0.00 0.00 0.00 94 1010.2
20260509115506 69 243 0.0 0.0 0.00 0.00 0.00 94 1010.1
20260509115006 69 243 0.0 0.9 0.00 0.00 0.00 94 1010.1
20260509114508 69 243 0.0 0.9 0.00 0.00 0.00 94 1010.1
20260509114005 69 245 0.0 0.9 0.00 0.00 0.00 94 1010.2
20260509113505 69 206 0.0 0.9 0.00 0.00 0.00 94 1010.2
20260509113010 69 257 0.0 1.7 0.00 0.00 0.00 94 1010.2
20260509112507 69 282 0.0 1.7 0.00 0.00 0.00 94 1010.0
20260509112008 70 282 0.0 3.5 0.00 0.00 0.00 94 1010.0
20260509111534 70 280 0.9 5.2 0.00 0.00 0.00 95 1009.9
20260509111010 69 277 1.7 5.2 0.00 0.00 0.00 95 1009.8
20260509110502 69 295 2.6 5.2 0.00 0.00 0.00 96 1009.8
20260509110004 69 255 0.9 7.8 0.00 0.00 0.00 96 1009.6
20260509105503 69 264 2.6 7.8 0.00 0.00 0.00 96 1009.6
20260509105005 69 329 1.7 7.8 0.00 0.00 0.00 96 1009.5
20260509104516 69 304 2.6 7.8 0.00 0.00 0.00 96 1009.5
20260509104008 69 316 2.6 6.1 0.00 0.00 0.00 96 1009.1
20260509103506 69 237 3.5 7.8 0.00 0.00 0.00 96 1008.1
20260509103011 69 211 2.6 7.8 0.00 0.00 0.00 96 1008.0
20260509102510 68 205 0.9 7.0 0.00 0.00 0.00 96 1007.7
20260509102006 68 94 2.6 7.0 0.00 0.00 0.00 96 1007.8
20260509101527 68 185 2.6 7.0 0.00 0.00 0.00 96 1007.7
20260509101007 68 227 1.7 7.8 0.00 0.00 0.00 96 1007.6
20260509100505 68 132 2.6 7.8 0.00 0.00 0.00 96 1007.3
20260509100022 68 203 2.6 7.8 0.00 0.00 0.00 96 1007.3
20260509095508 68 192 3.5 8.7 0.00 0.00 0.00 96 1007.2
20260509095004 68 148 2.6 8.7 0.00 0.00 0.00 96 1007.2
20260509094504 68 153 3.5 8.7 0.00 0.00 0.00 96 1007.2
20260509094004 68 169 1.7 8.7 0.00 0.00 0.00 96 1007.3
20260509093503 68 206 3.5 9.6 0.00 0.00 0.00 96 1007.4
20260509093009 68 165 4.3 9.6 0.00 0.00 0.00 96 1007.3
20260509092503 68 177 4.3 7.8 0.00 0.00 0.00 96 1007.5
20260509092006 68 88 3.5 8.7 0.00 0.00 0.00 95 1007.5
20260509091516 68 190 2.6 8.7 0.00 0.00 0.00 95 1007.5
20260509091006 68 101 1.7 7.8 0.00 0.00 0.00 95 1007.8
20260509090507 68 174 4.3 7.8 0.00 0.00 0.00 95 1008.1
20260509090017 68 228 2.6 6.1 0.00 0.00 0.00 95 1008.3
20260509085507 68 143 1.7 7.0 0.00 0.00 0.00 95 1008.4
20260509085007 68 184 1.7 7.0 0.00 0.00 0.00 95 1008.3
20260509084523 68 197 3.5 7.0 0.00 0.00 0.00 95 1008.6
20260509084007 68 212 0.9 4.3 0.00 0.00 0.00 94 1008.5
20260509083503 68 211 0.9 2.6 0.00 0.00 0.00 94 1009.0
20260509083009 68 217 0.0 3.5 0.00 0.00 0.00 94 1009.3
20260509082508 68 205 1.7 5.2 0.00 0.00 0.00 94 1009.3
20260509082004 69 208 1.7 5.2 0.00 0.00 0.00 94 1009.6
20260509081510 69 210 1.7 4.3 0.00 0.00 0.00 94 1009.7
20260509081005 69 209 0.9 4.3 0.00 0.00 0.00 94 1009.8
20260509080507 69 165 1.7 4.3 0.00 0.00 0.00 95 1010.3
20260509080017 69 241 1.7 3.5 0.00 0.00 0.00 95 1011.2
20260509075507 69 242 0.9 4.3 0.00 0.00 0.00 95 1011.1
20260509075007 69 243 0.9 4.3 0.00 0.00 0.00 95 1011.3
20260509074523 69 276 0.0 1.7 0.00 0.00 0.00 95 1011.2
20260509074011 69 218 0.9 2.6 0.00 0.00 0.00 95 1011.2
20260509073506 69 259 0.9 2.6 0.00 0.00 0.00 95 1011.4
20260509073026 68 276 0.0 0.0 0.00 0.00 0.00 95 1011.3
20260509072511 68 255 0.0 0.0 0.00 0.00 0.00 95 1011.1
20260509072004 68 285 0.0 0.0 0.00 0.00 0.00 95 1011.1
20260509071510 68 282 0.0 0.0 0.00 0.00 0.00 95 1010.9
20260509071004 68 219 0.0 0.9 0.00 0.00 0.00 95 1010.8
20260509070504 68 215 0.0 0.9 0.00 0.00 0.00 95 1010.7
20260509070013 68 222 0.0 0.9 0.00 0.00 0.00 96 1011.1
20260509065508 68 222 0.0 0.0 0.00 0.00 0.00 96 1011.3
20260509065008 68 217 0.0 0.0 0.00 0.00 0.00 96 1011.4
20260509064528 68 201 0.0 0.0 0.00 0.00 0.00 96 1011.5
20260509064008 68 202 0.0 0.0 0.00 0.00 0.00 95 1011.1
20260509063509 67 201 0.0 0.0 0.00 0.00 0.00 95 1011.1
20260509063023 67 202 0.0 0.0 0.00 0.00 0.00 95 1011.0
20260509062511 67 202 0.0 0.0 0.00 0.00 0.00 95 1010.9
20260509062010 67 201 0.0 0.9 0.00 0.00 0.00 94 1010.9
20260509061536 67 201 0.0 0.9 0.00 0.00 0.00 94 1010.8
20260509061006 68 202 0.0 0.9 0.00 0.00 0.00 95 1010.5
20260509060504 68 202 0.0 0.0 0.00 0.00 0.00 94 1010.4
20260509060010 68 202 0.0 0.0 0.00 0.00 0.00 94 1010.3
20260509055505 68 202 0.0 0.0 0.00 0.00 0.00 93 1010.2
20260509055005 68 202 0.0 0.0 0.00 0.00 0.00 93 1010.1
20260509054518 68 202 0.0 0.0 0.00 0.00 0.00 93 1010.2
20260509054007 68 202 0.0 0.9 0.00 0.00 0.00 94 1010.3
20260509053506 68 202 0.0 0.9 0.00 0.00 0.00 94 1010.2
20260509053030 68 200 0.0 0.9 0.00 0.00 0.00 94 1010.3
20260509052508 69 127 0.0 0.9 0.00 0.00 0.00 93 1010.3
20260509052009 69 119 0.0 1.7 0.00 0.00 0.00 93 1010.1
20260509051523 69 146 0.0 2.6 0.00 0.00 0.00 93 1010.1
20260509051012 69 143 0.0 2.6 0.00 0.00 0.00 93 1010.2
20260509050509 68 166 0.0 1.7 0.00 0.00 0.00 92 1010.2
20260509050025 68 158 0.0 0.9 0.00 0.00 0.00 92 1010.4
20260509045503 69 148 0.0 0.0 0.00 0.00 0.00 92 1010.7
20260509045003 69 148 0.0 0.0 0.00 0.00 0.00 91 1010.6
20260509044514 69 148 0.0 0.0 0.00 0.00 0.00 91 1010.7
20260509044005 69 148 0.0 0.0 0.00 0.00 0.00 91 1010.7
20260509043508 69 148 0.0 0.0 0.00 0.00 0.00 91 1010.6
20260509043021 70 148 0.0 0.0 0.00 0.00 0.00 91 1010.6
20260509042507 70 148 0.0 0.0 0.00 0.00 0.00 90 1010.5
20260509042010 70 148 0.0 0.0 0.00 0.00 0.00 90 1010.3
20260509041524 70 148 0.0 0.0 0.00 0.00 0.00 90 1010.3
20260509041009 70 148 0.0 0.0 0.00 0.00 0.00 89 1010.2
20260509040511 71 148 0.0 0.0 0.00 0.00 0.00 89 1010.1
20260509040026 71 148 0.0 0.0 0.00 0.00 0.00 89 1010.2
20260509035509 71 148 0.0 0.0 0.00 0.00 0.00 89 1010.2
20260509035010 71 148 0.0 0.0 0.00 0.00 0.00 89 1010.3
20260509034534 71 148 0.0 0.0 0.00 0.00 0.00 89 1010.4
20260509034007 71 148 0.0 0.0 0.00 0.00 0.00 89 1010.3
20260509033506 71 148 0.0 0.0 0.00 0.00 0.00 89 1010.1
20260509033015 71 148 0.0 0.9 0.00 0.00 0.00 89 1010.0
20260509032511 71 120 0.0 0.9 0.00 0.00 0.00 88 1010.0
20260509032016 71 120 0.0 1.7 0.00 0.00 0.00 88 1009.8
20260509031520 71 120 0.0 1.7 0.00 0.00 0.00 88 1009.7
20260509031009 71 134 0.0 0.9 0.00 0.00 0.00 88 1009.5
20260509030509 71 167 0.0 0.0 0.00 0.00 0.00 88 1009.5
20260509030023 71 122 0.0 0.0 0.00 0.00 0.00 88 1009.6
20260509025511 71 122 0.0 0.0 0.00 0.00 0.00 87 1009.7
20260509025016 71 122 0.0 0.0 0.00 0.00 0.00 87 1009.7
20260509024506 72 122 0.0 0.0 0.00 0.00 0.00 87 1009.8
20260509024009 72 122 0.0 0.0 0.00 0.00 0.00 87 1009.8
20260509023504 72 122 0.0 0.0 0.00 0.00 0.00 87 1009.6
20260509023012 72 122 0.0 0.0 0.00 0.00 0.00 87 1009.5
20260509022505 72 122 0.0 0.0 0.00 0.00 0.00 87 1009.5
20260509022007 72 122 0.0 0.0 0.00 0.00 0.00 86 1009.3
20260509021516 72 122 0.0 0.0 0.00 0.00 0.00 87 1009.3
20260509021003 72 129 0.0 0.0 0.00 0.00 0.00 87 1009.3
20260509020507 72 117 0.0 0.0 0.00 0.00 0.00 86 1009.3
20260509020003 72 119 0.0 0.0 0.00 0.00 0.00 86 1009.1
20260509015503 72 122 0.0 0.0 0.00 0.00 0.00 86 1009.1
20260509015006 72 122 0.0 0.0 0.00 0.00 0.00 86 1009.1
20260509014507 72 122 0.0 0.0 0.00 0.00 0.00 86 1009.1
20260509014003 72 119 0.0 0.9 0.00 0.00 0.00 85 1009.1
20260509013506 72 120 0.0 0.9 0.00 0.00 0.00 85 1009.1
20260509013010 72 210 0.0 0.0 0.00 0.00 0.00 85 1009.1
20260509012507 73 210 0.0 0.0 0.00 0.00 0.00 84 1009.1
20260509012006 73 210 0.0 0.0 0.00 0.00 0.00 84 1009.1
20260509011516 73 210 0.0 0.0 0.00 0.00 0.00 84 1009.1
20260509011010 73 210 0.0 0.0 0.00 0.00 0.00 83 1009.0
20260509010508 73 210 0.0 1.7 0.00 0.00 0.00 83 1008.7
20260509010025 73 210 0.0 1.7 0.00 0.00 0.00 83 1008.5
20260509005508 73 223 0.0 1.7 0.00 0.00 0.00 82 1008.5
20260509005003 74 202 0.0 2.6 0.00 0.00 0.00 82 1008.6
20260509004506 74 167 0.0 2.6 0.00 0.00 0.00 81 1008.6
20260509004005 74 195 0.9 2.6 0.00 0.00 0.00 80 1008.7
20260509003504 75 205 0.0 3.5 0.00 0.00 0.00 79 1008.7
20260509003007 76 214 0.0 3.5 0.00 0.00 0.00 78 1008.6
20260509002506 76 119 0.0 3.5 0.00 0.00 0.00 77 1008.6
20260509002006 77 184 0.0 4.3 0.00 0.00 0.00 77 1008.5
20260509001512 77 186 0.0 4.3 0.00 0.00 0.00 76 1008.4
20260509001007 78 120 1.7 4.3 0.00 0.00 0.00 75 1008.3
20260509000509 78 123 0.0 1.7 0.00 0.00 0.00 76 1008.5
20260509000016 78 122 0.9 1.7 0.00 0.00 0.00 75 1008.5
20260508235506 77 147 0.0 4.3 0.00 0.00 0.00 77 1008.4
20260508235007 77 207 0.9 5.2 0.00 0.00 0.00 77 1008.4
20260508234521 77 167 0.0 6.1 0.00 0.00 0.00 77 1008.4
20260508234003 77 157 1.7 6.1 0.00 0.00 0.00 77 1008.5
20260508233504 77 15 0.9 6.1 0.00 0.00 0.00 76 1008.5
20260508233006 77 150 1.7 7.0 0.00 0.00 0.00 77 1008.5
20260508232504 77 124 1.7 7.0 0.00 0.00 0.00 76 1008.5
20260508232006 77 115 0.9 6.1 0.00 0.00 0.00 77 1008.6
20260508231513 77 219 0.0 6.1 0.00 0.00 0.00 78 1008.7
20260508231009 77 226 2.6 6.1 0.00 0.00 0.00 77 1008.6
20260508230503 77 223 1.7 8.7 0.00 0.00 0.00 77 1008.6
20260508230014 76 214 3.5 8.7 0.00 0.00 0.00 77 1008.6
20260508225507 76 102 3.5 7.0 0.00 0.00 0.00 77 1008.7
20260508225006 76 155 1.7 7.0 0.00 0.00 0.00 77 1008.8
20260508224526 76 140 2.6 7.0 0.00 0.00 0.00 76 1008.8
20260508224009 76 136 2.6 6.1 0.00 0.00 0.00 76 1008.8
20260508223508 76 204 3.5 7.8 0.00 0.00 0.00 76 1008.8
20260508223014 76 160 0.9 7.8 0.00 0.00 0.00 77 1008.9
20260508222507 76 82 2.6 8.7 0.00 0.00 0.00 77 1008.9
20260508222004 76 117 0.9 8.7 0.00 0.00 0.00 77 1008.9
20260508221510 76 103 1.7 6.1 0.00 0.00 0.00 77 1009.0
20260508221007 75 184 1.7 7.8 0.00 0.00 0.00 78 1009.2
20260508220504 75 176 3.5 7.8 0.00 0.00 0.00 78 1009.3
20260508220011 76 129 1.7 6.1 0.00 0.00 0.00 75 1009.4
20260508215508 76 172 1.7 5.2 0.00 0.00 0.00 75 1009.4
20260508215009 76 237 0.0 7.8 0.00 0.00 0.00 77 1009.4
20260508214520 75 212 1.7 7.8 0.00 0.00 0.00 77 1009.2
20260508214008 74 150 2.6 10.4 0.00 0.00 0.00 78 1008.9
20260508213507 74 222 2.6 13.9 0.00 0.00 0.00 79 1008.7
20260508213022 73 231 3.5 13.9 0.00 0.00 0.00 79 1008.9
20260508212507 73 198 5.2 11.3 0.00 0.00 0.00 81 1009.0
20260508212009 72 107 4.3 13.9 0.00 0.00 0.00 81 1009.2
20260508211507 72 124 7.0 13.9 0.00 0.00 0.00 82 1009.3
20260508211008 71 162 4.3 10.4 0.00 0.00 0.00 82 1009.3
20260508210504 71 166 3.5 9.6 0.00 0.00 0.00 82 1009.4
20260508210012 70 103 4.3 9.6 0.00 0.00 0.00 83 1009.6
20260508205507 69 76 3.5 8.7 0.00 0.00 0.00 84 1010.0
20260508205003 69 136 3.5 6.1 0.00 0.00 0.00 82 1010.3
20260508204516 69 94 1.7 6.1 0.00 0.00 0.00 82 1010.5
20260508204011 69 115 0.0 6.1 0.00 0.00 0.00 81 1010.6
20260508203508 69 184 1.7 4.3 0.00 0.00 0.00 80 1010.8
20260508203025 70 115 0.9 4.3 0.00 0.00 0.00 79 1011.0
20260508202507 70 212 0.9 4.3 0.00 0.00 0.00 78 1011.2
20260508202009 70 136 0.9 5.2 0.00 0.00 0.00 79 1011.0
20260508201523 70 214 0.9 5.2 0.00 0.00 0.00 79 1011.1
20260508201008 71 90 0.9 4.3 0.00 0.00 0.00 77 1011.4
20260508200509 71 226 0.0 6.1 0.00 0.00 0.00 76 1011.5
20260508200007 71 190 2.6 6.1 0.00 0.00 0.00 75 1011.6
20260508195506 72 244 0.9 5.2 0.00 0.00 0.00 75 1011.4
20260508195005 72 214 0.0 3.5 0.00 0.00 0.00 77 1011.1
20260508194515 71 158 0.9 3.5 0.00 0.00 0.00 77 1011.0
20260508194007 70 132 0.0 4.3 0.00 0.00 0.00 77 1011.1
20260508193507 70 177 0.0 4.3 0.00 0.00 0.00 76 1011.2
20260508193017 71 236 0.0 6.1 0.00 0.00 0.00 76 1011.2
20260508192506 71 203 2.6 6.1 0.00 0.00 0.00 75 1011.2
20260508192009 71 123 0.9 5.2 0.00 0.00 0.00 76 1011.2
20260508191534 71 212 0.9 4.3 0.00 0.00 0.00 76 1011.2
20260508191009 71 161 0.9 7.0 0.00 0.00 0.00 75 1011.4
20260508190506 71 100 1.7 7.0 0.00 0.00 0.00 75 1011.6
20260508190030 71 214 0.9 6.1 0.00 0.00 0.00 75 1011.5
20260508185509 70 129 2.6 6.1 0.00 0.00 0.00 75 1011.6
20260508185010 70 157 2.6 7.0 0.00 0.00 0.00 75 1011.6
20260508184510 70 204 1.7 7.0 0.00 0.00 0.00 75 1011.8
20260508184002 70 167 1.7 6.1 0.00 0.00 0.00 75 1012.0
20260508183509 70 117 0.9 6.1 0.00 0.00 0.00 75 1012.0
20260508183016 70 174 0.9 4.3 0.00 0.00 0.00 75 1012.1
20260508182508 70 127 0.9 6.1 0.00 0.00 0.00 75 1012.3
20260508182008 70 115 1.7 6.1 0.00 0.00 0.00 74 1012.4
20260508181523 71 148 0.0 7.0 0.00 0.00 0.00 74 1012.4
20260508181007 71 157 1.7 7.0 0.00 0.00 0.00 73 1012.4
20260508180508 71 91 0.9 7.0 0.00 0.00 0.00 72 1012.4
20260508180024 71 193 0.9 5.2 0.00 0.00 0.00 74 1012.4
20260508175512 71 133 0.9 6.1 0.00 0.00 0.00 75 1012.4
20260508175013 70 131 1.7 6.1 0.00 0.00 0.00 74 1012.4
20260508174507 70 103 2.6 8.7 0.00 0.00 0.00 74 1012.4
20260508174003 70 108 2.6 8.7 0.00 0.00 0.00 74 1012.3
20260508173503 70 97 5.2 7.8 0.00 0.00 0.00 73 1012.5
20260508173011 70 67 2.6 7.8 0.00 0.00 0.00 73 1012.7
20260508172507 70 121 0.9 7.0 0.00 0.00 0.00 73 1012.8
20260508172010 70 135 2.6 7.8 0.00 0.00 0.00 73 1012.8
20260508171519 70 126 3.5 7.8 0.00 0.00 0.00 72 1012.9
20260508171009 70 125 2.6 7.8 0.00 0.00 0.00 74 1012.9
20260508170506 70 129 3.5 8.7 0.00 0.00 0.00 73 1012.9
20260508170022 70 167 4.3 8.7 0.00 0.00 0.00 72 1013.0
20260508165511 70 103 3.5 10.4 0.00 0.00 0.00 72 1013.2
20260508165004 70 127 4.3 10.4 0.00 0.00 0.00 73 1013.2
20260508164504 70 148 3.5 10.4 0.00 0.00 0.00 73 1013.2
20260508164006 69 205 4.3 10.4 0.00 0.00 0.00 74 1013.3
20260508163503 69 99 5.2 10.4 0.00 0.00 0.00 74 1013.3
20260508163009 69 98 4.3 8.7 0.00 0.00 0.00 74 1013.3
20260508162507 68 103 3.5 6.1 0.00 0.00 0.00 77 1013.4
20260508162004 68 101 3.5 6.1 0.00 0.00 0.00 77 1013.5
20260508161512 68 91 0.9 4.3 0.00 0.00 0.00 77 1013.7
20260508161008 68 100 1.7 4.3 0.00 0.00 0.00 76 1013.8
20260508160507 68 116 1.7 4.3 0.00 0.00 0.00 76 1014.1
20260508160020 68 78 1.7 4.3 0.00 0.00 0.00 75 1014.0
20260508155510 68 103 0.9 3.5 0.00 0.00 0.00 76 1014.0
20260508155008 67 115 0.9 2.6 0.00 0.00 0.00 78 1014.1
20260508154522 66 103 0.0 4.3 0.00 0.00 0.00 77 1014.2
20260508154013 66 94 0.0 4.3 0.00 0.00 0.00 78 1014.2
20260508153503 66 106 0.0 2.6 0.00 0.00 0.00 79 1014.4
20260508153008 66 104 0.0 2.6 0.00 0.00 0.00 79 1014.5
20260508152507 65 141 0.0 0.9 0.00 0.00 0.00 78 1014.5
20260508152003 65 91 0.0 3.5 0.00 0.00 0.00 79 1014.5
20260508151515 65 113 0.0 3.5 0.00 0.00 0.00 79 1014.5
20260508151009 65 107 0.9 3.5 0.00 0.00 0.00 79 1014.4
20260508150507 65 113 0.0 4.3 0.00 0.00 0.00 79 1014.5
20260508150020 65 108 1.7 5.2 0.00 0.00 0.00 78 1014.4
20260508145507 65 100 3.5 5.2 0.00 0.00 0.00 78 1014.4
20260508145007 65 121 1.7 4.3 0.00 0.00 0.00 78 1014.4
20260508144521 65 94 0.9 6.1 0.00 0.00 0.00 78 1014.4
20260508144007 65 79 2.6 6.1 0.00 0.00 0.00 77 1014.4
20260508143510 65 104 0.9 3.5 0.00 0.00 0.00 79 1014.4
20260508143024 65 94 1.7 6.1 0.00 0.00 0.00 78 1014.4
20260508142511 65 153 2.6 6.1 0.00 0.00 0.00 78 1014.4
20260508142003 65 124 2.6 5.2 0.00 0.00 0.00 79 1014.3
20260508141509 64 139 1.7 5.2 0.00 0.00 0.00 80 1014.3
20260508141006 64 116 2.6 5.2 0.00 0.00 0.00 80 1014.3
20260508140509 64 96 2.6 4.3 0.00 0.00 0.00 80 1014.3
20260508140016 64 84 1.7 4.3 0.00 0.00 0.00 81 1014.4
20260508135514 64 71 2.6 5.2 0.00 0.00 0.00 80 1014.4